Wind_Speed
11 11 11 11 11 12 10 9 10 11 11 10 9 8 8 7 7 7 7 7 8 8 9 10 10 10 10 10 11 11 12 13 14 14 14 13 13 12 10 9 8 6 5 4 3 3 3 5 6
10 11 11 11 11 10 9 9 9 10 9 9 8 8 7 7 6 6 6 6 7 7 7 8 8 8 8 9 9 9 10 11 12 13 13 13 13 12 12 11 10 8 6 5 4 3 2 3 4
9 10 10 10 11 9 8 8 8 8 8 7 7 7 6 6 6 5 5 6 6 6 6 6 7 7 7 7 7 7 8 9 10 11 12 12 12 12 12 11 11 9 8 6 5 4 3 2 2
7 7 8 8 8 7 6 6 6 6 6 6 6 6 5 5 5 4 4 5 6 6 6 6 6 6 6 6 5 5 6 6 7 8 9 10 10 11 11 11 11 10 9 8 7 5 4 3 3
4 5 5 6 5 4 4 3 4 4 4 5 5 5 4 4 4 3 3 5 5 6 7 7 7 7 6 6 5 5 5 5 5 5 6 7 8 8 10 10 10 10 10 9 8 7 6 5 4
1 2 3 3 3 2 1 1 1 1 2 3 3 3 3 3 3 2 1 4 6 7 8 8 8 8 8 8 7 6 6 5 4 4 4 5 5 6 7 8 9 9 9 9 9 8 7 6 5
2 1 1 1 2 2 1 1 2 3 2 2 2 3 3 3 3 2 1 3 6 8 9 9 10 10 10 10 10 9 8 7 6 5 4 4 4 4 4 5 6 7 8 8 8 8 7 7 6
5 4 4 5 4 4 4 4 4 5 5 5 5 5 6 6 5 5 5 5 6 8 10 11 12 12 12 12 12 11 11 10 9 8 7 5 5 4 4 3 3 3 4 5 6 7 7 7 6
8 7 7 7 7 7 7 7 7 8 8 8 8 9 10 9 9 9 9 8 9 9 10 12 13 14 15 15 15 14 13 13 12 11 10 9 7 6 5 4 3 3 2 2 2 4 5 6 6
9 10 11 11 11 11 11 11 11 12 12 12 13 13 13 14 14 14 13 13 13 13 13 14 15 16 17 18 18 17 16 16 15 14 14 12 11 10 9 8 7 5 4 3 2 1 1 3 4
11 12 14 14 14 14 15 15 16 16 17 17 18 18 18 18 18 18 18 18 18 17 17 18 18 19 20 20 21 20 20 20 19 18 18 16 15 14 12 11 10 9 8 7 6 5 4 2 2
13 14 16 17 17 18 18 19 20 20 21 22 22 22 22 21 21 21 21 21 21 21 22 23 24 24 24 24 24 24 23 23 22 22 20 19 19 17 16 14 13 12 11 10 10 9 8 7 5
16 17 19 20 22 22 23 23 23 24 25 25 25 25 25 25 25 25 25 25 24 24 25 25 27 28 30 30 29 28 27 26 26 25 24 23 22 20 19 17 16 15 14 13 13 12 11 11 10
20 21 22 23 24 25 26 27 27 27 28 28 29 29 29 30 30 30 30 30 30 29 29 29 30 31 32 32 33 32 31 30 29 29 28 27 25 23 22 20 18 17 16 15 15 14 14 14 13
23 24 25 26 26 27 28 28 28 29 29 30 30 31 31 33 34 34 35 35 35 35 35 35 35 35 34 34 34 34 34 34 33 32 31 30 28 27 25 23 21 20 18 17 17 17 16 17 16
25 26 27 27 28 28 29 28 28 29 29 30 30 31 32 34 36 37 38 39 40 41 42 41 41 40 39 38 37 36 36 37 36 36 34 33 32 30 28 26 25 23 21 20 19 18 18 18 19
26 27 29 29 28 28 29 29 27 28 28 29 30 31 33 35 36 38 39 41 42 43 45 46 47 47 45 43 42 41 39 38 38 38 37 36 34 32 31 30 28 26 24 23 22 21 21 21 20
26 27 28 28 28 28 28 28 28 28 28 29 30 32 33 35 37 38 40 41 43 44 46 47 48 49 50 50 48 45 43 42 39 38 38 37 36 35 33 32 31 29 26 25 25 24 24 24 23
26 27 27 27 27 28 28 28 28 29 29 31 32 33 35 36 37 39 40 42 43 44 46 48 49 50 50 50 52 50 48 47 45 42 40 38 37 35 33 32 32 31 29 27 26 26 26 27 26
25 26 26 26 26 27 27 27 28 29 30 31 32 33 34 36 37 38 39 41 42 44 45 47 48 50 51 50 50 51 51 49 47 45 42 40 39 36 35 33 31 30 29 28 27 27 26 26 27
24 25 25 25 25 24 25 26 26 27 28 29 31 32 33 34 34 35 36 38 39 40 42 44 46 47 48 49 50 49 50 49 48 47 45 43 41 38 36 36 33 30 27 26 26 25 25 26 27
22 22 22 21 22 22 22 25 23 25 26 28 28 28 28 29 29 30 30 31 33 34 36 37 39 40 42 43 45 46 46 47 46 46 46 45 44 40 38 36 35 32 29 29 28 27 27 26 26
18 19 19 19 19 20 19 20 21 22 24 25 25 25 25 25 25 25 25 26 27 28 28 29 30 32 33 35 37 40 41 43 43 43 43 44 44 43 40 38 36 34 32 31 29 27 26 26 26
17 17 17 16 16 16 17 18 19 19 20 21 22 22 22 22 22 21 21 21 20 19 20 21 21 22 24 26 30 33 36 38 40 40 41 42 42 41 40 38 36 35 34 33 31 29 28 26 26
16 16 16 15 15 15 16 16 16 17 17 17 18 18 17 18 17 17 17 17 15 13 13 15 16 16 17 19 22 25 29 32 34 36 37 37 37 37 38 38 37 35 34 33 33 31 29 27 27
15 15 14 14 15 14 14 15 15 15 15 15 16 16 16 15 14 15 15 14 13 11 10 10 10 9 10 12 14 17 21 24 27 29 31 32 33 35 35 36 35 34 34 33 32 32 30 29 28
14 14 14 13 13 13 14 14 14 14 14 15 16 16 15 14 14 15 15 14 14 12 11 10 8 6 6 6 8 10 13 15 18 21 24 27 30 31 32 33 33 33 33 33 32 32 32 31 31
14 14 14 13 13 13 13 14 14 14 14 15 15 15 15 16 16 16 16 15 15 15 14 12 10 9 7 5 4 4 7 10 13 16 19 22 25 27 29 30 31 32 33 33 34 34 34 34 34
15 14 15 14 14 13 13 14 14 14 14 16 16 16 16 18 18 18 17 16 16 17 16 15 14 12 11 9 6 4 2 4 7 11 14 17 20 23 24 26 29 31 32 33 34 35 36 36 36
16 15 15 15 15 15 14 14 14 14 14 15 16 16 17 18 19 20 20 20 20 19 19 17 16 15 13 11 10 7 5 2 2 5 8 11 14 17 19 22 25 27 29 31 33 34 35 36 36
Wind_Direction
72 74 75 73 75 70 73 85 96 100 102 102 100 98 96 100 111 120 127 132 128 119 112 108 105 103 101 100 97 92 89 87 86 83 83 83 82 81 80 80 82 87 94 99 109 140 174 193 203
67 72 74 75 72 67 69 78 91 96 100 103 103 99 100 102 112 126 137 145 146 138 127 120 116 114 112 108 103 97 92 90 87 84 82 81 80 78 76 75 76 79 83 88 89 106 147 177 194
66 70 71 75 72 67 65 73 78 86 92 95 96 95 98 103 113 134 147 157 164 161 152 142 137 132 129 125 119 110 103 96 91 87 83 81 79 77 74 72 72 73 75 78 80 86 102 124 161
64 65 67 69 70 66 64 65 69 75 83 85 85 87 91 101 110 136 164 173 179 182 177 171 167 163 157 152 147 138 125 113 102 93 87 83 80 78 75 72 70 70 71 74 76 78 86 98 114
63 66 71 78 78 72 65 67 74 75 80 80 74 70 70 83 98 123 174 196 199 202 199 194 194 195 192 188 182 175 165 148 132 115 102 94 88 82 77 73 71 69 69 71 75 78 84 89 105
46 72 83 91 99 103 106 99 113 82 80 66 53 47 42 47 65 87 176 217 224 225 221 215 214 216 216 215 212 208 204 194 180 161 138 121 110 100 89 80 74 70 69 69 71 77 81 85 95
291 288 251 216 206 196 199 266 265 272 290 328 337 340 348 348 350 347 303 251 243 242 239 233 230 230 231 230 229 226 224 221 215 206 189 168 148 132 116 99 85 77 72 69 67 70 75 80 88
284 282 270 260 257 254 261 272 277 276 280 287 295 301 305 306 304 300 293 282 268 258 252 248 243 240 240 240 239 238 236 235 233 230 223 212 197 181 164 146 122 100 84 74 68 66 69 77 86
284 283 281 280 279 279 278 276 282 276 278 277 280 286 290 291 288 283 278 274 271 267 264 258 253 249 246 245 244 243 243 242 241 241 239 234 226 217 208 198 189 180 155 106 79 70 70 76 85
286 288 290 290 290 288 284 280 284 284 280 278 279 281 284 284 282 278 274 272 268 264 262 261 258 255 251 249 246 244 243 244 245 245 246 245 240 234 229 224 220 218 218 220 221 191 96 87 89
285 288 291 294 293 291 289 286 285 287 283 280 280 280 281 282 281 278 275 273 270 266 263 259 257 254 252 250 247 245 243 243 244 245 247 247 246 244 240 236 234 231 230 231 234 235 232 217 171
281 285 288 290 290 290 289 287 286 286 284 283 283 282 281 279 276 276 275 273 271 268 263 260 257 253 250 247 246 244 243 242 242 244 246 247 249 249 247 242 240 238 236 235 236 237 237 234 227
278 281 284 287 289 289 288 287 286 285 284 283 282 280 278 274 271 270 268 266 266 264 263 261 259 256 252 246 243 243 243 242 242 243 244 245 246 249 249 247 245 243 241 239 238 238 238 237 235
279 282 284 286 287 287 288 287 286 284 283 282 280 277 274 272 270 267 265 262 260 258 257 258 258 256 254 250 244 241 241 242 242 242 242 243 244 246 247 247 246 245 244 242 241 241 240 239 238
282 285 286 287 288 287 287 286 286 284 282 280 278 276 273 271 269 267 265 263 261 259 257 256 255 254 252 251 248 244 243 242 241 242 241 241 242 243 243 244 245 245 244 244 244 243 243 243 242
286 288 289 289 289 289 287 286 285 284 282 280 278 276 274 272 271 269 267 264 262 260 258 257 256 254 251 249 248 247 245 243 243 241 240 241 240 240 241 243 245 244 245 246 246 246 245 245 244
290 291 291 292 292 291 290 289 287 285 283 281 280 278 277 275 273 271 269 266 264 261 260 258 258 257 255 252 249 249 246 245 243 243 241 241 241 241 242 243 244 244 246 248 247 249 249 248 246
291 292 292 293 293 292 291 290 288 287 285 284 282 281 280 278 276 274 271 269 267 264 262 260 259 258 257 255 254 252 249 248 247 245 243 244 246 245 245 246 245 244 246 248 249 249 251 250 248
292 293 293 294 293 292 291 289 288 288 287 286 285 283 282 280 279 277 274 272 269 267 265 262 260 259 258 257 256 255 253 251 249 246 247 247 247 248 250 251 250 247 248 250 252 252 253 252 249
295 294 294 295 294 292 290 289 288 288 288 287 287 286 285 284 283 281 278 275 273 271 269 266 263 261 260 258 257 255 253 252 251 251 251 249 248 249 252 252 254 253 251 253 256 257 256 255 253
297 297 297 297 296 294 293 291 292 291 291 292 291 290 289 289 288 285 282 280 278 277 274 270 267 264 262 260 258 256 254 253 252 250 250 250 250 251 251 254 255 255 258 259 257 258 259 257 256
304 303 302 302 301 299 298 298 298 298 298 299 299 299 299 298 296 293 289 286 283 281 278 274 269 265 263 261 259 257 256 254 253 252 251 251 251 250 251 253 256 257 258 259 261 262 262 261 257
316 315 312 310 308 306 306 304 307 306 306 306 307 307 307 307 307 305 302 296 290 286 281 276 271 266 262 260 257 254 254 253 253 252 251 250 251 251 252 254 256 258 259 260 261 263 262 261 258
326 325 323 321 318 317 315 314 316 316 314 313 313 313 313 315 316 316 315 311 304 296 287 279 275 270 264 259 255 252 250 250 250 251 250 249 250 251 252 253 256 258 259 260 261 261 261 260 258
338 338 337 337 335 330 326 325 326 326 326 327 327 326 325 326 327 327 328 325 321 314 303 291 286 278 270 264 257 251 248 247 248 248 248 248 249 249 250 252 254 255 256 256 257 257 257 257 257
349 347 346 343 339 338 336 338 339 341 342 344 348 350 350 350 350 349 349 349 345 341 334 320 309 295 280 270 262 255 248 244 244 245 244 244 245 245 246 248 249 250 250 250 251 251 251 253 253
355 355 354 352 349 349 351 353 354 356 359 2 4 7 11 14 16 16 16 11 7 5 360 357 355 343 329 302 273 258 250 243 240 240 240 240 241 242 243 244 245 246 246 246 247 247 248 249 250
7 8 11 12 8 7 7 9 10 14 17 23 24 28 30 31 29 24 23 23 25 27 27 23 19 16 15 3 334 271 251 242 240 237 237 238 239 240 241 241 242 243 244 245 245 247 248 249 249
22 23 23 22 19 18 19 21 25 31 34 36 39 41 41 40 38 37 36 33 34 36 35 35 36 34 32 30 26 10 305 258 243 239 238 238 238 240 241 242 242 242 243 244 245 246 248 249 250
29 29 27 26 25 25 28 34 36 40 42 43 45 48 48 48 46 46 45 43 43 43 40 40 38 39 38 36 37 33 26 1 280 249 242 239 239 240 242 243 244 244 244 245 246 246 247 249 250
Height
5933 5932 5932 5933 5933 5933 5933 5933 5931 5930 5929 5929 5928 5927 5926 5927 5927 5930 5927 5925 5925 5925 5924 5924 5924 5924 5924 5924 5923 5923 5922 5921 5920 5919 5918 5917 5916 5915 5914 5914 5913 5913 5912 5912 5912 5912 5912 5912 5913
5934 5933 5934 5934 5933 5933 5934 5933 5932 5931 5930 5929 5928 5927 5927 5926 5926 5926 5926 5925 5925 5925 5924 5924 5925 5925 5925 5925 5924 5924 5923 5922 5921 5920 5919 5918 5917 5916 5915 5914 5914 5913 5912 5912 5912 5912 5912 5912 5912
5935 5935 5935 5934 5933 5934 5934 5933 5932 5931 5930 5929 5929 5928 5928 5927 5926 5926 5926 5925 5925 5925 5925 5924 5924 5925 5925 5925 5925 5924 5924 5923 5922 5921 5920 5919 5918 5917 5916 5916 5915 5914 5913 5913 5912 5912 5912 5912 5912
5936 5936 5936 5936 5934 5934 5933 5933 5932 5931 5931 5930 5929 5929 5928 5927 5926 5926 5925 5925 5925 5925 5924 5924 5924 5924 5924 5924 5924 5924 5924 5923 5922 5922 5921 5920 5919 5918 5918 5917 5916 5915 5914 5913 5913 5912 5912 5912 5912
5936 5937 5937 5935 5935 5934 5933 5932 5932 5931 5931 5930 5930 5929 5928 5927 5926 5926 5925 5925 5925 5924 5924 5923 5923 5923 5923 5923 5923 5923 5923 5922 5922 5921 5921 5920 5920 5919 5918 5918 5917 5916 5915 5914 5913 5913 5912 5912 5912
5937 5937 5937 5936 5935 5934 5933 5932 5932 5931 5931 5930 5930 5929 5928 5928 5927 5926 5925 5924 5924 5924 5923 5922 5922 5922 5922 5922 5922 5922 5922 5921 5921 5921 5920 5920 5919 5919 5919 5918 5917 5917 5916 5915 5914 5914 5913 5913 5912
5937 5936 5935 5935 5934 5934 5933 5932 5932 5931 5931 5931 5930 5929 5928 5927 5927 5926 5925 5924 5923 5923 5922 5921 5921 5921 5920 5920 5920 5920 5920 5920 5920 5919 5919 5919 5919 5918 5918 5918 5917 5917 5916 5916 5915 5914 5914 5913 5913
5935 5936 5934 5934 5934 5933 5933 5932 5931 5930 5930 5930 5929 5928 5928 5927 5926 5925 5924 5924 5923 5922 5921 5920 5919 5919 5919 5919 5918 5918 5918 5918 5918 5918 5918 5917 5917 5917 5917 5917 5917 5917 5916 5916 5915 5915 5914 5914 5914
5933 5935 5933 5933 5933 5932 5931 5931 5930 5928 5928 5928 5927 5927 5926 5925 5924 5923 5923 5922 5921 5920 5919 5919 5918 5917 5917 5917 5916 5916 5916 5915 5915 5915 5915 5915 5915 5915 5915 5916 5916 5916 5916 5916 5915 5915 5915 5914 5914
5932 5931 5931 5931 5930 5930 5929 5928 5927 5926 5926 5926 5925 5924 5923 5922 5921 5921 5920 5919 5918 5917 5917 5916 5915 5915 5914 5914 5913 5913 5913 5913 5912 5913 5913 5913 5913 5913 5913 5913 5914 5914 5915 5915 5915 5915 5914 5914 5914
5929 5929 5928 5928 5927 5926 5926 5925 5924 5923 5923 5922 5921 5921 5920 5919 5918 5917 5916 5915 5914 5913 5913 5912 5911 5911 5910 5910 5910 5909 5909 5909 5909 5909 5909 5910 5910 5910 5910 5911 5911 5912 5912 5913 5913 5913 5913 5914 5914
5927 5926 5925 5924 5923 5923 5922 5921 5920 5919 5918 5917 5916 5915 5915 5914 5913 5912 5911 5910 5909 5908 5908 5907 5906 5905 5905 5904 5904 5904 5905 5905 5905 5905 5906 5906 5906 5907 5907 5908 5908 5909 5909 5910 5911 5911 5912 5912 5913
5924 5923 5922 5921 5919 5918 5917 5917 5916 5914 5913 5912 5911 5910 5909 5908 5908 5906 5905 5905 5904 5903 5902 5901 5900 5899 5898 5898 5898 5898 5899 5899 5900 5901 5901 5901 5902 5902 5903 5904 5904 5905 5906 5907 5908 5908 5909 5910 5910
5921 5920 5918 5917 5915 5914 5912 5911 5910 5908 5907 5906 5905 5903 5902 5901 5900 5899 5899 5898 5897 5896 5895 5894 5893 5893 5892 5891 5891 5891 5892 5893 5894 5895 5895 5896 5896 5897 5898 5899 5900 5901 5902 5903 5904 5905 5906 5907 5908
5916 5915 5914 5912 5910 5908 5907 5906 5903 5902 5900 5899 5897 5896 5895 5893 5892 5891 5890 5890 5889 5888 5887 5887 5886 5885 5885 5884 5884 5884 5884 5885 5886 5888 5889 5890 5890 5891 5892 5894 5895 5896 5897 5899 5900 5901 5902 5903 5904
5912 5910 5908 5906 5904 5902 5902 5899 5897 5895 5893 5891 5889 5888 5886 5885 5883 5882 5881 5880 5880 5879 5878 5877 5877 5877 5876 5876 5876 5876 5876 5877 5879 5880 5881 5882 5884 5885 5886 5888 5889 5891 5892 5893 5895 5896 5897 5898 5899
5907 5905 5902 5900 5897 5895 5894 5892 5890 5888 5886 5883 5881 5879 5877 5876 5874 5872 5871 5870 5869 5868 5868 5867 5867 5867 5867 5867 5867 5868 5868 5870 5871 5872 5873 5874 5876 5878 5879 5881 5882 5884 5886 5887 5889 5890 5892 5893 5894
5903 5900 5897 5894 5891 5889 5886 5884 5882 5880 5878 5876 5873 5871 5869 5866 5864 5862 5860 5859 5858 5857 5856 5856 5856 5856 5856 5857 5857 5858 5860 5861 5863 5864 5865 5866 5869 5870 5872 5873 5875 5877 5879 5880 5882 5884 5885 5887 5889
5897 5895 5891 5889 5885 5882 5880 5877 5875 5872 5870 5868 5865 5863 5860 5857 5854 5852 5849 5848 5846 5845 5844 5844 5844 5844 5844 5845 5846 5847 5849 5851 5853 5855 5857 5859 5860 5863 5865 5866 5868 5870 5872 5874 5875 5877 5878 5880 5882
5892 5889 5886 5883 5880 5876 5873 5871 5868 5866 5863 5860 5857 5854 5851 5848 5844 5841 5838 5836 5834 5832 5831 5830 5830 5831 5831 5833 5834 5836 5838 5840 5843 5845 5848 5850 5852 5855 5857 5859 5861 5863 5865 5867 5868 5870 5872 5873 5875
5887 5884 5880 5877 5874 5870 5867 5865 5862 5859 5855 5852 5849 5845 5842 5838 5834 5831 5827 5824 5822 5820 5818 5817 5817 5818 5818 5820 5822 5824 5827 5829 5832 5835 5838 5841 5844 5846 5849 5851 5853 5855 5857 5859 5861 5863 5865 5866 5868
5882 5878 5875 5872 5869 5865 5863 5859 5856 5852 5848 5844 5841 5837 5833 5829 5825 5821 5818 5815 5812 5809 5807 5805 5804 5805 5806 5808 5810 5813 5815 5818 5821 5825 5828 5831 5834 5838 5840 5842 5845 5847 5849 5852 5854 5856 5858 5859 5861
5878 5874 5870 5867 5864 5861 5858 5855 5852 5847 5843 5839 5835 5831 5827 5822 5818 5814 5810 5806 5803 5800 5797 5795 5794 5794 5795 5797 5799 5801 5804 5808 5811 5814 5817 5821 5824 5828 5831 5834 5837 5839 5842 5844 5846 5849 5851 5853 5854
5874 5870 5867 5863 5860 5858 5854 5851 5847 5843 5839 5835 5830 5826 5821 5817 5813 5809 5805 5800 5796 5793 5790 5788 5787 5786 5787 5788 5789 5791 5794 5798 5801 5804 5807 5811 5814 5818 5822 5825 5828 5831 5834 5836 5838 5841 5843 5845 5846
5872 5868 5865 5861 5858 5855 5851 5847 5845 5840 5836 5831 5827 5822 5818 5813 5809 5805 5801 5796 5792 5789 5786 5784 5783 5782 5781 5781 5782 5783 5786 5788 5792 5795 5798 5802 5805 5809 5812 5816 5819 5822 5825 5828 5830 5833 5835 5837 5839
5870 5867 5865 5861 5857 5853 5849 5845 5842 5837 5833 5829 5824 5820 5815 5811 5807 5803 5799 5795 5791 5787 5784 5782 5780 5778 5777 5777 5777 5778 5779 5781 5783 5787 5790 5793 5797 5800 5804 5807 5810 5814 5817 5819 5822 5824 5827 5829 5831
5869 5865 5862 5859 5855 5852 5848 5844 5840 5836 5832 5827 5823 5819 5815 5811 5807 5803 5799 5795 5791 5788 5784 5782 5780 5777 5776 5775 5774 5774 5775 5776 5778 5780 5783 5786 5789 5792 5795 5799 5802 5805 5808 5811 5813 5816 5818 5821 5823
5869 5865 5862 5858 5855 5851 5848 5844 5840 5835 5831 5827 5823 5820 5816 5812 5809 5805 5801 5797 5793 5790 5786 5783 5780 5778 5776 5775 5773 5772 5773 5773 5774 5776 5778 5780 5783 5785 5788 5791 5793 5796 5799 5802 5805 5807 5809 5812 5814
5869 5865 5862 5859 5855 5852 5848 5847 5841 5837 5833 5829 5826 5822 5818 5815 5811 5808 5804 5800 5796 5792 5789 5785 5782 5780 5778 5776 5774 5773 5772 5772 5772 5773 5774 5776 5778 5780 5782 5784 5786 5788 5791 5794 5796 5798 5801 5803 5805
5869 5866 5863 5860 5856 5853 5850 5849 5843 5839 5835 5832 5828 5825 5822 5818 5815 5811 5807 5803 5799 5796 5792 5788 5785 5783 5780 5778 5776 5774 5773 5772 5772 5772 5772 5773 5774 5775 5777 5778 5780 5782 5784 5786 5788 5790 5791 5793 5795